User: anonymous   Login
Location: Newark
(41.6478°N, 9.0078°E)
Time: 02:24:52
(UTC+00:00)
Language:

NOAA 15 - Orbit

View from above orbital plane
View from above orbital plane
View from above satellite
View from above satellite

Ground track
Ground track

The orbit data is extracted from the following two-line orbital elements,

1 25338U 98030A   20018.57292645 +.00000013 +00000-0 +24047-4 0  9997
2 25338 098.7316 044.2790 0010097 347.0865 013.0054 14.25947757127478
Epoch (UTC): 18 January 2020 13:45:00
Eccentricity: 0.0010097
inclination: 98.7316°
perigee height: 798 km
apogee height: 812 km
right ascension of ascending node: 44.2790°
argument of perigee: 347.0865°
revolutions per day: 14.25947757
mean anomaly at epoch: 13.0054°
orbit number at epoch: 12747

The dashed part of the orbit path shows where the satellite is in the earth's shadow,  

DLR